,,,PA_Meas_PMT16A,,PR_Meas_QMR101_102,,RH_Meas_QMH101,,SR_Meas_QMS101,,TA_Meas_QMH101,,GenWind,,GenWind,
date,time,status,PA,status,PR,status,RH,status,SR,status,TA,status,DirAvg,status,SpdAvg,
2014-03-23, 00:00:04,VALID,1009.38,VALID,0,VALID,89.412,VALID,0,VALID,24.8438,VALID,334,VALID,0,
2014-03-23, 00:01:04,VALID,1009.33,VALID,0,VALID,89.8314,VALID,0,VALID,24.8438,VALID,334,VALID,0,
2014-03-23, 00:02:04,VALID,1009.35,VALID,0,VALID,89.8771,VALID,0,VALID,24.7659,VALID,334,VALID,0,
2014-03-23, 00:03:04,VALID,1009.33,VALID,0,VALID,90.2508,VALID,0,VALID,24.7659,VALID,334,VALID,0,
2014-03-23, 00:04:04,VALID,1009.36,VALID,0,VALID,90.3652,VALID,0,VALID,24.7464,VALID,334,VALID,0,
2014-03-23, 00:05:04,VALID,1009.32,VALID,0,VALID,90.7541,VALID,0,VALID,24.7269,VALID,334,VALID,0,
2014-03-23, 00:06:04,VALID,1009.29,VALID,0,VALID,90.9676,VALID,0,VALID,24.6879,VALID,334,VALID,0,
2014-03-23, 00:07:04,VALID,1009.28,VALID,0,VALID,91.387,VALID,0,VALID,24.6081,VALID,334,VALID,0,
2014-03-23, 00:08:04,VALID,1009.29,VALID,0,VALID,92.5233,VALID,0,VALID,24.6684,VALID,334,VALID,0,
2014-03-23, 00:09:04,VALID,1009.26,VALID,0,VALID,93.0342,VALID,0,VALID,24.6081,VALID,334,VALID,0,
2014-03-23, 00:10:04,VALID,1009.23,VALID,0,VALID,93.9798,VALID,0,VALID,24.6099,VALID,334,VALID,0,
2014-03-23, 00:11:04,VALID,1009.25,VALID,0,VALID,95.3677,VALID,0,VALID,24.6294,VALID,334,VALID,0,
2014-03-23, 00:12:04,VALID,1009.26,VALID,0,VALID,95.6269,VALID,0,VALID,24.6294,VALID,334,VALID,0,
2014-03-23, 00:13:04,VALID,1009.24,VALID,0,VALID,95.7642,VALID,0,VALID,24.6489,VALID,334,VALID,0,
2014-03-23, 00:14:04,VALID,1009.23,VALID,0,VALID,95.9549,VALID,0,VALID,24.6471,VALID,334,VALID,0,
2014-03-23, 00:15:04,VALID,1009.25,VALID,0,VALID,95.9854,VALID,0,VALID,24.6684,VALID,334,VALID,0,
2014-03-23, 00:16:04,VALID,1009.26,VALID,0,VALID,95.871,VALID,0,VALID,24.6489,VALID,334,VALID,0,
2014-03-23, 00:17:04,VALID,1009.26,VALID,0,VALID,96.0845,VALID,0,VALID,24.6684,VALID,334,VALID,0,
2014-03-23, 00:18:04,VALID,1009.26,VALID,0,VALID,95.749,VALID,0,VALID,24.6684,VALID,334,VALID,0,
2014-03-23, 00:19:04,VALID,1009.26,VALID,0,VALID,95.5354,VALID,0,VALID,24.6276,VALID,334,VALID,0,
2014-03-23, 00:20:04,VALID,1009.23,VALID,0,VALID,95.5126,VALID,0,VALID,24.6294,VALID,334,VALID,0,
2014-03-23, 00:21:04,VALID,1009.25,VALID,0,VALID,95.932,VALID,0,VALID,24.6081,VALID,334,VALID,0,
2014-03-23, 00:22:04,VALID,1009.23,VALID,0,VALID,96.0845,VALID,0,VALID,24.6099,VALID,334,VALID,0,
2014-03-23, 00:23:04,VALID,1009.2,VALID,0,VALID,95.9625,VALID,0,VALID,24.5691,VALID,334,VALID,0,
2014-03-23, 00:24:04,VALID,1009.2,VALID,0,VALID,96.0235,VALID,0,VALID,24.5515,VALID,334,VALID,0,
2014-03-23, 00:25:04,VALID,1009.19,VALID,0,VALID,96.4048,VALID,0,VALID,24.532,VALID,334,VALID,0,
2014-03-23, 00:26:04,VALID,1009.19,VALID,0,VALID,96.7784,VALID,0,VALID,24.532,VALID,334,VALID,0,
2014-03-23, 00:27:04,VALID,1009.18,VALID,0,VALID,96.7479,VALID,0,VALID,24.5125,VALID,334,VALID,0,
2014-03-23, 00:28:04,VALID,1009.19,VALID,0,VALID,97.1445,VALID,0,VALID,24.532,VALID,334,VALID,0,
2014-03-23, 00:29:04,VALID,1009.2,VALID,0,VALID,97.1445,VALID,0,VALID,24.5125,VALID,334,VALID,0,
2014-03-23, 00:30:04,VALID,1009.19,VALID,0,VALID,97.2131,VALID,0,VALID,24.493,VALID,334,VALID,0,
2014-03-23, 00:31:04,VALID,1009.18,VALID,0,VALID,97.6783,VALID,0,VALID,24.454,VALID,334,VALID,0,
2014-03-23, 00:32:04,VALID,1009.21,VALID,0,VALID,98.0901,VALID,0,VALID,24.532,VALID,334,VALID,0,
2014-03-23, 00:33:04,VALID,1009.2,VALID,0,VALID,98.479,VALID,0,VALID,24.493,VALID,334,VALID,0,
2014-03-23, 00:34:04,VALID,1009.19,VALID,0,VALID,98.5476,VALID,0,VALID,24.4735,VALID,334,VALID,0,
2014-03-23, 00:35:04,VALID,1009.18,VALID,0,VALID,98.8831,VALID,0,VALID,24.493,VALID,334,VALID,0,
2014-03-23, 00:36:04,VALID,1009.16,VALID,0,VALID,99.2339,VALID,0,VALID,24.5125,VALID,334,VALID,0,
2014-03-23, 00:37:04,VALID,1009.17,VALID,0,VALID,99.3254,VALID,0,VALID,24.532,VALID,334,VALID,0,
2014-03-23, 00:38:04,VALID,1009.17,VALID,0,VALID,99.4627,VALID,0,VALID,24.5106,VALID,334,VALID,0,
2014-03-23, 00:39:04,VALID,1009.17,VALID,0,VALID,99.6076,VALID,0,VALID,24.571,VALID,334,VALID,0,
2014-03-23, 00:40:04,VALID,1009.15,VALID,0,VALID,99.3941,VALID,0,VALID,24.5496,VALID,334,VALID,0,
2014-03-23, 00:41:04,VALID,1009.16,VALID,0,VALID,99.4398,VALID,0,VALID,24.5905,VALID,334,VALID,0,
2014-03-23, 00:42:04,VALID,1009.1,VALID,0,VALID,98.723,VALID,0,VALID,24.5515,VALID,334,VALID,0,
2014-03-23, 00:43:04,VALID,1009.11,VALID,0,VALID,98.3036,VALID,0,VALID,24.4911,VALID,334,VALID,0,
2014-03-23, 00:44:04,VALID,1009.05,VALID,0,VALID,98.8526,VALID,0,VALID,24.5125,VALID,334,VALID,0,
2014-03-23, 00:45:04,VALID,1009.04,VALID,0,VALID,99.028,VALID,0,VALID,24.4717,VALID,334,VALID,0,
2014-03-23, 00:46:04,VALID,1009.05,VALID,0,VALID,98.9213,VALID,0,VALID,24.4522,VALID,334,VALID,0,
2014-03-23, 00:47:04,VALID,1009.05,VALID,0,VALID,98.8603,VALID,0,VALID,24.415,VALID,334,VALID,0,
2014-03-23, 00:48:04,VALID,1009.06,VALID,0,VALID,99.1577,VALID,0,VALID,24.3742,VALID,334,VALID,0,
2014-03-23, 00:49:04,VALID,1009.04,VALID,0,VALID,99.2263,VALID,0,VALID,24.3566,VALID,334,VALID,0,
2014-03-23, 00:50:04,VALID,1009.08,VALID,0,VALID,99.6915,VALID,0,VALID,24.3566,VALID,334,VALID,0,
2014-03-23, 00:51:04,VALID,1009.08,VALID,0,VALID,99.8135,VALID,0,VALID,24.3566,VALID,334,VALID,0,
2014-03-23, 00:52:04,VALID,1009.09,VALID,0,VALID,99.9736,VALID,0,VALID,24.3352,VALID,334,VALID,0,
2014-03-23, 00:53:04,VALID,1009.09,VALID,0,VALID,100.347,VALID,0,VALID,24.3371,VALID,334,VALID,0,
2014-03-23, 00:54:04,VALID,1009.12,VALID,0,VALID,100.736,VALID,0,VALID,24.3566,VALID,334,VALID,0,
2014-03-23, 00:55:04,VALID,1009.11,VALID,0,VALID,101.102,VALID,0,VALID,24.3352,VALID,334,VALID,0,
2014-03-23, 00:56:04,VALID,1009.14,VALID,0,VALID,101.468,VALID,0,VALID,24.3956,VALID,334,VALID,0,
2014-03-23, 00:57:04,VALID,1009.12,VALID,0,VALID,101.697,VALID,0,VALID,24.3956,VALID,334,VALID,0,
2014-03-23, 00:58:04,VALID,1009.12,VALID,0,VALID,102.193,VALID,0,VALID,24.3956,VALID,327,VALID,0,
2014-03-23, 00:59:04,VALID,1009.13,VALID,0,VALID,102.605,VALID,0,VALID,24.5125,VALID,316,VALID,0,
2014-03-23, 01:00:04,VALID,1009.09,VALID,0,VALID,102.513,VALID,0,VALID,24.5496,VALID,324,VALID,0.321094,
2014-03-23, 01:01:04,VALID,1009.11,VALID,0,VALID,102.078,VALID,0,VALID,24.5905,VALID,324,VALID,0.0246094,
2014-03-23, 01:02:04,VALID,1009.07,VALID,0,VALID,101.476,VALID,0,VALID,24.6294,VALID,316,VALID,0,
2014-03-23, 01:03:04,VALID,1009.05,VALID,0,VALID,100.416,VALID,0,VALID,24.6489,VALID,317,VALID,0,
2014-03-23, 01:04:04,VALID,1009.06,VALID,0,VALID,99.844,VALID,0,VALID,24.6879,VALID,315,VALID,0,
2014-03-23, 01:05:04,VALID,1009.04,VALID,0,VALID,98.0443,VALID,0,VALID,24.6879,VALID,300,VALID,0,
2014-03-23, 01:06:04,VALID,1009.05,VALID,0,VALID,96.542,VALID,0,VALID,24.6879,VALID,313,VALID,0,
2014-03-23, 01:07:04,VALID,1009.02,VALID,0,VALID,96.3514,VALID,0,VALID,24.7055,VALID,328,VALID,0,
2014-03-23, 01:08:04,VALID,1009.02,VALID,0,VALID,96.176,VALID,0,VALID,24.7074,VALID,329,VALID,0,
2014-03-23, 01:09:04,VALID,1009,VALID,0,VALID,97.2131,VALID,0,VALID,24.7055,VALID,326,VALID,0.0644531,
2014-03-23, 01:10:04,VALID,1009.02,VALID,0,VALID,95.7642,VALID,0,VALID,24.7269,VALID,326,VALID,0.0152344,
2014-03-23, 01:11:04,VALID,1009.01,VALID,0,VALID,95.2304,VALID,0.112112,VALID,24.7464,VALID,335,VALID,0.895703,
2014-03-23, 01:12:04,VALID,1009.01,VALID,0,VALID,95.4821,VALID,0,VALID,24.7055,VALID,338,VALID,0.00585938,
2014-03-23, 01:13:04,VALID,1008.99,VALID,0,VALID,94.7957,VALID,0,VALID,24.725,VALID,338,VALID,0.0550781,
2014-03-23, 01:14:04,VALID,1009.01,VALID,0,VALID,94.506,VALID,0.112112,VALID,24.7055,VALID,338,VALID,0.421094,
2014-03-23, 01:15:04,VALID,1008.99,VALID,0,VALID,94.2924,VALID,0,VALID,24.7074,VALID,338,VALID,0.454688,
2014-03-23, 01:16:04,VALID,1008.98,VALID,0,VALID,94.5746,VALID,0,VALID,24.686,VALID,338,VALID,0.308594,
2014-03-23, 01:17:04,VALID,1009.05,VALID,0,VALID,94.7195,VALID,0,VALID,24.6471,VALID,338,VALID,0.4,
2014-03-23, 01:18:04,VALID,1009.03,VALID,0,VALID,95.2152,VALID,0,VALID,24.6489,VALID,338,VALID,0.498047,
2014-03-23, 01:19:04,VALID,1009.07,VALID,0,VALID,95.3295,VALID,0,VALID,24.6294,VALID,338,VALID,0.113281,
2014-03-23, 01:20:04,VALID,1009.09,VALID,0,VALID,96.542,VALID,0,VALID,24.5886,VALID,338,VALID,0.344141,
2014-03-23, 01:21:04,VALID,1009.07,VALID,0,VALID,97.1597,VALID,0.112112,VALID,24.5886,VALID,338,VALID,0.990234,
2014-03-23, 01:22:04,VALID,1009.11,VALID,0,VALID,97.9299,VALID,0.112112,VALID,24.5886,VALID,290,VALID,0.827734,
2014-03-23, 01:23:04,VALID,1009.08,VALID,0,VALID,97.2207,VALID,0,VALID,24.6294,VALID,290,VALID,0.576563,
2014-03-23, 01:24:04,VALID,1009.1,VALID,0,VALID,96.931,VALID,0,VALID,24.6276,VALID,291,VALID,0.583984,
2014-03-23, 01:25:04,VALID,1009.08,VALID,0,VALID,96.4124,VALID,0,VALID,24.5886,VALID,292,VALID,0.324609,
2014-03-23, 01:26:04,VALID,1009.1,VALID,0,VALID,96.4429,VALID,0.112112,VALID,24.5886,VALID,292,VALID,0.0589844,
2014-03-23, 01:27:04,VALID,1009.13,VALID,0,VALID,97.1368,VALID,0.112112,VALID,24.5691,VALID,291,VALID,0,
2014-03-23, 01:28:04,VALID,1009.08,VALID,0,VALID,97.1368,VALID,0.112112,VALID,24.6081,VALID,291,VALID,0,
2014-03-23, 01:29:04,VALID,1009.1,VALID,0,VALID,96.4277,VALID,0,VALID,24.6081,VALID,291,VALID,0,
2014-03-23, 01:30:04,VALID,1009.12,VALID,0,VALID,96.0311,VALID,0,VALID,24.5886,VALID,292,VALID,0,
2014-03-23, 01:31:04,VALID,1009.1,VALID,0,VALID,95.8862,VALID,0,VALID,24.6099,VALID,292,VALID,0,
2014-03-23, 01:32:04,VALID,1009.11,VALID,0,VALID,95.5202,VALID,0,VALID,24.6099,VALID,291,VALID,0,
2014-03-23, 01:33:04,VALID,1009.1,VALID,0,VALID,95.6651,VALID,0,VALID,24.5886,VALID,291,VALID,0,
2014-03-23, 01:34:04,VALID,1009.12,VALID,0,VALID,95.1923,VALID,0,VALID,24.5905,VALID,292,VALID,0,
2014-03-23, 01:35:04,VALID,1009.1,VALID,0,VALID,95.055,VALID,0,VALID,24.571,VALID,291,VALID,0,
2014-03-23, 01:36:04,VALID,1009.1,VALID,0,VALID,95.4744,VALID,0,VALID,24.5301,VALID,291,VALID,0,
2014-03-23, 01:37:04,VALID,1009.12,VALID,0,VALID,95.3219,VALID,0,VALID,24.532,VALID,291,VALID,0,
2014-03-23, 01:38:04,VALID,1009.12,VALID,0,VALID,95.5049,VALID,0,VALID,24.5125,VALID,291,VALID,0,
2014-03-23, 01:39:04,VALID,1009.13,VALID,0,VALID,95.7871,VALID,0,VALID,24.532,VALID,291,VALID,0,
2014-03-23, 01:40:04,VALID,1009.12,VALID,0,VALID,95.1465,VALID,0,VALID,24.493,VALID,292,VALID,0.205469,
2014-03-23, 01:41:04,VALID,1009.15,VALID,0,VALID,95.7871,VALID,0,VALID,24.5125,VALID,292,VALID,0,
2014-03-23, 01:42:05,VALID,1009.13,VALID,0,VALID,95.5354,VALID,0,VALID,24.5125,VALID,291,VALID,0,
2014-03-23, 01:43:05,VALID,1009.15,VALID,0,VALID,95.177,VALID,0,VALID,24.5125,VALID,291,VALID,0,
2014-03-23, 01:44:05,VALID,1009.14,VALID,0,VALID,95.3905,VALID,0,VALID,24.571,VALID,292,VALID,0,
2014-03-23, 01:45:05,VALID,1009.13,VALID,0,VALID,94.872,VALID,0,VALID,24.4911,VALID,31,VALID,0.988672,
2014-03-23, 01:46:05,VALID,1009.16,VALID,0,VALID,93.8425,VALID,0,VALID,24.532,VALID,31,VALID,0.499609,
2014-03-23, 01:47:05,VALID,1009.12,VALID,0,VALID,93.2477,VALID,0,VALID,24.5125,VALID,31,VALID,0.371875,
2014-03-23, 01:48:05,VALID,1009.13,VALID,0,VALID,92.6148,VALID,0,VALID,24.5125,VALID,31,VALID,0.0761719,
2014-03-23, 01:49:05,VALID,1009.11,VALID,0,VALID,92.6834,VALID,0,VALID,24.4717,VALID,31,VALID,0,
2014-03-23, 01:50:05,VALID,1009.1,VALID,0,VALID,93.2401,VALID,0,VALID,24.4327,VALID,31,VALID,0,
2014-03-23, 01:51:05,VALID,1009.07,VALID,0,VALID,93.8654,VALID,0,VALID,24.4345,VALID,31,VALID,0,
2014-03-23, 01:52:05,VALID,1009.08,VALID,0,VALID,93.8425,VALID,0,VALID,24.3742,VALID,31,VALID,0,
2014-03-23, 01:53:05,VALID,1009.06,VALID,0,VALID,94.2696,VALID,0,VALID,24.3761,VALID,31,VALID,0.217578,
2014-03-23, 01:54:05,VALID,1009.06,VALID,0,VALID,96.0692,VALID,0,VALID,24.3566,VALID,31,VALID,0.434766,
2014-03-23, 01:55:05,VALID,1009.08,VALID,0,VALID,97.2055,VALID,0,VALID,24.3371,VALID,31,VALID,0.255469,
2014-03-23, 01:56:05,VALID,1009.06,VALID,0,VALID,97.3427,VALID,0,VALID,24.3176,VALID,31,VALID,0.0734375,
2014-03-23, 01:57:05,VALID,1009.04,VALID,0,VALID,97.7545,VALID,0,VALID,24.2981,VALID,31,VALID,0.46875,
2014-03-23, 01:58:05,VALID,1009.07,VALID,0,VALID,98.418,VALID,0,VALID,24.2573,VALID,31,VALID,0.503906,
2014-03-23, 01:59:05,VALID,1009.05,VALID,0,VALID,98.7078,VALID,0,VALID,24.2591,VALID,31,VALID,0.065625,
2014-03-23, 02:00:05,VALID,1009.02,VALID,0,VALID,99.3788,VALID,0,VALID,24.2396,VALID,21,VALID,0.729297,
2014-03-23, 02:01:05,VALID,1009.06,VALID,0,VALID,99.6305,VALID,0,VALID,24.2183,VALID,21,VALID,0.322266,
2014-03-23, 02:02:05,VALID,1009.04,VALID,0,VALID,99.5008,VALID,0,VALID,24.2202,VALID,21,VALID,0.240234,
2014-03-23, 02:03:05,VALID,1009.02,VALID,0,VALID,99.6533,VALID,0,VALID,24.2396,VALID,21,VALID,0.257422,
2014-03-23, 02:04:05,VALID,1009.03,VALID,0,VALID,99.844,VALID,0,VALID,24.2007,VALID,21,VALID,0.355078,
2014-03-23, 02:05:05,VALID,1009.01,VALID,0,VALID,100.21,VALID,0,VALID,24.1812,VALID,21,VALID,0.130078,
2014-03-23, 02:06:05,VALID,1009.01,VALID,0,VALID,100.233,VALID,0,VALID,24.1422,VALID,21,VALID,0.152734,
2014-03-23, 02:07:05,VALID,1009.02,VALID,0,VALID,100.668,VALID,0,VALID,24.1227,VALID,21,VALID,0.426562,
2014-03-23, 02:08:05,VALID,1008.99,VALID,0,VALID,101.133,VALID,0,VALID,24.1014,VALID,21,VALID,0.306641,
2014-03-23, 02:09:05,VALID,1009.01,VALID,0,VALID,101.423,VALID,0,VALID,24.0819,VALID,21,VALID,0,
2014-03-23, 02:10:05,VALID,1009.01,VALID,0,VALID,101.545,VALID,0,VALID,24.0837,VALID,21,VALID,0,
2014-03-23, 02:11:05,VALID,1009.03,VALID,0,VALID,101.674,VALID,0,VALID,24.0837,VALID,21,VALID,0,
2014-03-23, 02:12:05,VALID,1009.03,VALID,0,VALID,101.872,VALID,0,VALID,24.0643,VALID,21,VALID,0,
2014-03-23, 02:13:05,VALID,1009.03,VALID,0,VALID,101.949,VALID,0,VALID,24.0643,VALID,21,VALID,0,
2014-03-23, 02:14:05,VALID,1009.04,VALID,0,VALID,101.796,VALID,0,VALID,24.0235,VALID,21,VALID,0,
2014-03-23, 02:15:05,VALID,1009.02,VALID,0,VALID,101.972,VALID,0,VALID,24.0253,VALID,21,VALID,0,
2014-03-23, 02:16:05,VALID,1009.02,VALID,0,VALID,102.033,VALID,0,VALID,24.0253,VALID,21,VALID,0,
2014-03-23, 02:17:05,VALID,1009.01,VALID,0,VALID,102.2,VALID,0,VALID,24.0253,VALID,22,VALID,0,
2014-03-23, 02:18:05,VALID,1009,VALID,0,VALID,102.338,VALID,0,VALID,24.004,VALID,21,VALID,0,
2014-03-23, 02:19:05,VALID,1008.99,VALID,0,VALID,102.498,VALID,0,VALID,24.0253,VALID,21,VALID,0,
2014-03-23, 02:20:05,VALID,1009,VALID,0,VALID,102.482,VALID,0,VALID,24.0058,VALID,22,VALID,0,
2014-03-23, 02:21:05,VALID,1009.01,VALID,0,VALID,102.498,VALID,0,VALID,23.9845,VALID,20,VALID,0,
2014-03-23, 02:22:05,VALID,1009,VALID,0,VALID,102.482,VALID,0,VALID,24.0058,VALID,22,VALID,0,
2014-03-23, 02:23:05,VALID,1009,VALID,0,VALID,102.467,VALID,0,VALID,24.0058,VALID,21,VALID,0,
2014-03-23, 02:24:05,VALID,1008.98,VALID,0,VALID,102.452,VALID,0,VALID,23.965,VALID,21,VALID,0,
2014-03-23, 02:25:05,VALID,1008.99,VALID,0,VALID,102.475,VALID,0,VALID,23.965,VALID,22,VALID,0,
2014-03-23, 02:26:05,VALID,1009,VALID,0,VALID,102.421,VALID,0,VALID,23.9455,VALID,22,VALID,0,
2014-03-23, 02:27:05,VALID,1008.98,VALID,0,VALID,102.505,VALID,0,VALID,23.926,VALID,22,VALID,0,
2014-03-23, 02:28:05,VALID,1008.94,VALID,0,VALID,102.666,VALID,0,VALID,23.9084,VALID,21,VALID,0,
2014-03-23, 02:29:05,VALID,1008.94,VALID,0,VALID,102.757,VALID,0,VALID,23.8889,VALID,21,VALID,0,
2014-03-23, 02:30:05,VALID,1008.94,VALID,0,VALID,102.91,VALID,0,VALID,23.8676,VALID,21,VALID,0.209766,
2014-03-23, 02:31:05,VALID,1008.92,VALID,0,VALID,103.169,VALID,0,VALID,23.8889,VALID,21,VALID,0.310547,
2014-03-23, 02:32:05,VALID,1008.93,VALID,0,VALID,103.451,VALID,0,VALID,23.8481,VALID,21,VALID,0.259375,
2014-03-23, 02:33:05,VALID,1008.91,VALID,0,VALID,103.726,VALID,0,VALID,23.8889,VALID,21,VALID,0,
2014-03-23, 02:34:05,VALID,1008.93,VALID,0,VALID,103.84,VALID,0,VALID,23.8499,VALID,21,VALID,0,
2014-03-23, 02:35:05,VALID,1008.9,VALID,0,VALID,104,VALID,0,VALID,23.8499,VALID,21,VALID,0,
2014-03-23, 02:36:05,VALID,1008.92,VALID,0,VALID,104,VALID,0.112112,VALID,23.8676,VALID,21,VALID,0,
2014-03-23, 02:37:05,VALID,1008.91,VALID,0,VALID,104,VALID,0,VALID,23.8499,VALID,21,VALID,0,
2014-03-23, 02:38:05,VALID,1008.91,VALID,0,VALID,104,VALID,0,VALID,23.8517,VALID,21,VALID,0,
2014-03-23, 02:39:05,VALID,1008.93,VALID,0,VALID,104,VALID,0,VALID,23.8304,VALID,21,VALID,0,
2014-03-23, 02:40:05,VALID,1008.95,VALID,0,VALID,104,VALID,0,VALID,23.8499,VALID,21,VALID,0,
2014-03-23, 02:41:05,VALID,1008.93,VALID,0,VALID,104,VALID,0,VALID,23.8304,VALID,21,VALID,0,
2014-03-23, 02:42:05,VALID,1008.95,VALID,0,VALID,104,VALID,0,VALID,23.8304,VALID,21,VALID,0,
2014-03-23, 02:43:05,VALID,1008.99,VALID,0,VALID,104,VALID,0,VALID,23.8109,VALID,21,VALID,0,
2014-03-23, 02:44:05,VALID,1009,VALID,0,VALID,104,VALID,0.112112,VALID,23.7896,VALID,21,VALID,0,
2014-03-23, 02:45:05,VALID,1008.98,VALID,0,VALID,104,VALID,0,VALID,23.7701,VALID,21,VALID,0,
2014-03-23, 02:46:05,VALID,1008.98,VALID,0,VALID,104,VALID,0,VALID,23.772,VALID,21,VALID,0,
2014-03-23, 02:47:05,VALID,1008.99,VALID,0,VALID,104,VALID,0,VALID,23.7117,VALID,21,VALID,0,
2014-03-23, 02:48:05,VALID,1008.96,VALID,0,VALID,104,VALID,0,VALID,23.6922,VALID,21,VALID,0,
2014-03-23, 02:49:05,VALID,1008.95,VALID,0,VALID,104,VALID,0.112112,VALID,23.7135,VALID,21,VALID,0,
2014-03-23, 02:50:05,VALID,1008.98,VALID,0,VALID,104,VALID,0,VALID,23.6532,VALID,21,VALID,0,
2014-03-23, 02:51:05,VALID,1008.98,VALID,0,VALID,104,VALID,0,VALID,23.6532,VALID,22,VALID,0,
2014-03-23, 02:52:05,VALID,1008.98,VALID,0,VALID,104,VALID,0.112112,VALID,23.6745,VALID,20,VALID,0,
2014-03-23, 02:53:05,VALID,1009,VALID,0,VALID,104,VALID,0.112112,VALID,23.655,VALID,22,VALID,0,
2014-03-23, 02:54:05,VALID,1009,VALID,0,VALID,104,VALID,0,VALID,23.6356,VALID,22,VALID,0,
2014-03-23, 02:55:05,VALID,1009.03,VALID,0,VALID,104,VALID,0,VALID,23.6356,VALID,21,VALID,0,
2014-03-23, 02:56:05,VALID,1009.04,VALID,0,VALID,104,VALID,0,VALID,23.5948,VALID,21,VALID,0,
2014-03-23, 02:57:05,VALID,1009.08,VALID,0,VALID,104,VALID,0.112112,VALID,23.5948,VALID,21,VALID,0,
2014-03-23, 02:58:05,VALID,1009.09,VALID,0,VALID,104,VALID,0.112112,VALID,23.6161,VALID,21,VALID,0,
2014-03-23, 02:59:05,VALID,1009.08,VALID,0,VALID,104,VALID,0,VALID,23.5966,VALID,21,VALID,0,
2014-03-23, 03:00:05,VALID,1009.09,VALID,0,VALID,104,VALID,0,VALID,23.6161,VALID,21,VALID,0,
2014-03-23, 03:01:05,VALID,1009.12,VALID,0,VALID,104,VALID,0,VALID,23.6356,VALID,21,VALID,0,
2014-03-23, 03:02:05,VALID,1009.1,VALID,0,VALID,104,VALID,0.112112,VALID,23.6356,VALID,21,VALID,0,
2014-03-23, 03:03:05,VALID,1009.12,VALID,0,VALID,104,VALID,0,VALID,23.6356,VALID,20,VALID,0,
2014-03-23, 03:04:05,VALID,1009.13,VALID,0,VALID,104,VALID,0,VALID,23.655,VALID,21,VALID,0,
2014-03-23, 03:05:05,VALID,1009.13,VALID,0,VALID,104,VALID,0,VALID,23.6745,VALID,21,VALID,0,
2014-03-23, 03:06:05,VALID,1009.1,VALID,0,VALID,104,VALID,0,VALID,23.6745,VALID,21,VALID,0,
2014-03-23, 03:07:05,VALID,1009.09,VALID,0,VALID,104,VALID,0,VALID,23.6727,VALID,21,VALID,0,
2014-03-23, 03:08:05,VALID,1009.08,VALID,0,VALID,104,VALID,0.112112,VALID,23.7135,VALID,21,VALID,0,
2014-03-23, 03:09:05,VALID,1009.03,VALID,0,VALID,104,VALID,0,VALID,23.7135,VALID,21,VALID,0,
2014-03-23, 03:10:05,VALID,1009.03,VALID,0,VALID,104,VALID,0,VALID,23.6922,VALID,21,VALID,0,
2014-03-23, 03:11:05,VALID,1008.97,VALID,0,VALID,104,VALID,0,VALID,23.7135,VALID,21,VALID,0,
2014-03-23, 03:12:05,VALID,1008.97,VALID,0,VALID,104,VALID,0,VALID,23.6727,VALID,21,VALID,0,
2014-03-23, 03:13:05,VALID,1008.93,VALID,0,VALID,104,VALID,0.112112,VALID,23.6727,VALID,21,VALID,0,
2014-03-23, 03:14:05,VALID,1008.91,VALID,0,VALID,104,VALID,0.112112,VALID,23.694,VALID,21,VALID,0,
2014-03-23, 03:15:05,VALID,1008.91,VALID,0,VALID,104,VALID,0,VALID,23.6532,VALID,21,VALID,0,
2014-03-23, 03:16:05,VALID,1008.91,VALID,0,VALID,104,VALID,0,VALID,23.6745,VALID,21,VALID,0,
2014-03-23, 03:17:05,VALID,1008.89,VALID,0,VALID,104,VALID,0,VALID,23.6745,VALID,21,VALID,0,
2014-03-23, 03:18:05,VALID,1008.9,VALID,0,VALID,104,VALID,0.112112,VALID,23.6143,VALID,21,VALID,0,
2014-03-23, 03:19:05,VALID,1008.89,VALID,0,VALID,104,VALID,0,VALID,23.6161,VALID,21,VALID,0,
2014-03-23, 03:20:05,VALID,1008.89,VALID,0,VALID,104,VALID,0,VALID,23.5966,VALID,21,VALID,0,
2014-03-23, 03:21:05,VALID,1008.9,VALID,0,VALID,104,VALID,0,VALID,23.5753,VALID,21,VALID,0,
2014-03-23, 03:22:05,VALID,1008.91,VALID,0,VALID,104,VALID,0,VALID,23.5753,VALID,21,VALID,0,
2014-03-23, 03:23:05,VALID,1008.9,VALID,0,VALID,104,VALID,0,VALID,23.5966,VALID,21,VALID,0,
2014-03-23, 03:24:05,VALID,1008.95,VALID,0,VALID,104,VALID,0,VALID,23.5771,VALID,21,VALID,0,
2014-03-23, 03:25:05,VALID,1008.99,VALID,0,VALID,104,VALID,0,VALID,23.5966,VALID,21,VALID,0,
2014-03-23, 03:26:05,VALID,1008.98,VALID,0,VALID,104,VALID,0,VALID,23.6179,VALID,21,VALID,0,
2014-03-23, 03:27:05,VALID,1009.03,VALID,0,VALID,104,VALID,0,VALID,23.5771,VALID,22,VALID,0,
2014-03-23, 03:28:05,VALID,1009.04,VALID,0,VALID,104,VALID,0,VALID,23.5771,VALID,21,VALID,0,
2014-03-23, 03:29:05,VALID,1009.06,VALID,0,VALID,104,VALID,0,VALID,23.5771,VALID,21,VALID,0,
2014-03-23, 03:30:05,VALID,1009.06,VALID,0,VALID,104,VALID,0,VALID,23.5576,VALID,21,VALID,0,
2014-03-23, 03:31:05,VALID,1009.06,VALID,0,VALID,104,VALID,0,VALID,23.5576,VALID,22,VALID,0,
2014-03-23, 03:32:05,VALID,1009.07,VALID,0,VALID,104,VALID,0,VALID,23.5966,VALID,21,VALID,0,
2014-03-23, 03:33:05,VALID,1009.06,VALID,0,VALID,104,VALID,0,VALID,23.655,VALID,21,VALID,0,
2014-03-23, 03:34:05,VALID,1009.07,VALID,0,VALID,104,VALID,0,VALID,23.5558,VALID,21,VALID,0,
2014-03-23, 03:35:05,VALID,1009.07,VALID,0,VALID,104,VALID,0,VALID,23.5576,VALID,22,VALID,0,
2014-03-23, 03:36:05,VALID,1009.04,VALID,0,VALID,104,VALID,0,VALID,23.5381,VALID,21,VALID,0,
2014-03-23, 03:37:05,VALID,1009.05,VALID,0,VALID,104,VALID,0,VALID,23.5186,VALID,22,VALID,0,
2014-03-23, 03:38:05,VALID,1009.03,VALID,0,VALID,104,VALID,0,VALID,23.5186,VALID,21,VALID,0,
2014-03-23, 03:39:05,VALID,1009.05,VALID,0,VALID,104,VALID,0,VALID,23.4797,VALID,20,VALID,0,
2014-03-23, 03:40:05,VALID,1009.02,VALID,0,VALID,104,VALID,0,VALID,23.4389,VALID,22,VALID,0,
2014-03-23, 03:41:05,VALID,1009.07,VALID,0,INVALID,109.033,VALID,0,VALID,23.4407,VALID,22,VALID,0,
2014-03-23, 03:42:05,VALID,1009.06,VALID,0,INVALID,109.071,VALID,0,VALID,23.4407,VALID,22,VALID,0,
2014-03-23, 03:43:05,VALID,1009.09,VALID,0,INVALID,109.064,VALID,0,VALID,23.4407,VALID,21,VALID,0,
2014-03-23, 03:44:05,VALID,1009.09,VALID,0,INVALID,109.132,VALID,0,VALID,23.4017,VALID,22,VALID,0,
2014-03-23, 03:45:05,VALID,1009.11,VALID,0,INVALID,109.117,VALID,0,VALID,23.3823,VALID,21,VALID,0,
2014-03-23, 03:46:05,VALID,1009.15,VALID,0,INVALID,109.193,VALID,0,VALID,23.3823,VALID,21,VALID,0,
2014-03-23, 03:47:05,VALID,1009.2,VALID,0,INVALID,109.285,VALID,0,VALID,23.361,VALID,21,VALID,0,
2014-03-23, 03:48:05,VALID,1009.19,VALID,0,INVALID,109.323,VALID,0,VALID,23.3823,VALID,21,VALID,0,
2014-03-23, 03:49:05,VALID,1009.19,VALID,0,INVALID,109.399,VALID,0,VALID,23.3628,VALID,22,VALID,0,
2014-03-23, 03:50:05,VALID,1009.21,VALID,0,INVALID,109.46,VALID,0,VALID,23.3628,VALID,20,VALID,0,
2014-03-23, 03:51:05,VALID,1009.19,VALID,0,INVALID,109.498,VALID,0,VALID,23.384,VALID,22,VALID,0,
2014-03-23, 03:52:05,VALID,1009.19,VALID,0,INVALID,109.521,VALID,0,VALID,23.3238,VALID,21,VALID,0,
2014-03-23, 03:53:05,VALID,1009.18,VALID,0,INVALID,109.552,VALID,0,VALID,23.3043,VALID,21,VALID,0,
2014-03-23, 03:54:05,VALID,1009.16,VALID,0,INVALID,109.536,VALID,0,VALID,23.3238,VALID,22,VALID,0,
2014-03-23, 03:55:05,VALID,1009.15,VALID,0,INVALID,109.574,VALID,0,VALID,23.2654,VALID,21,VALID,0,
2014-03-23, 03:56:05,VALID,1009.15,VALID,0,INVALID,109.635,VALID,0,VALID,23.2848,VALID,21,VALID,0,
2014-03-23, 03:57:05,VALID,1009.15,VALID,0,INVALID,109.689,VALID,0,VALID,23.2654,VALID,21,VALID,0,
2014-03-23, 03:58:05,VALID,1009.16,VALID,0,INVALID,109.719,VALID,0,VALID,23.3043,VALID,22,VALID,0,
2014-03-23, 03:59:05,VALID,1009.16,VALID,0,INVALID,109.696,VALID,0,VALID,23.3043,VALID,21,VALID,0,